Time,TemperatureF,DewpointF,PressureIn,WindDirection,WindDirectionDegrees,WindSpeedMPH,WindSpeedGustMPH,Humidity,HourlyPrecipIn,Conditions,Clouds,dailyrainin,SoftwareType,DateUTC
2013-02-10 00:04:00,37.6,30.7,29.29,SSE,160,15.0,16.0,76,0.00,-RA,,0.00,WeatherDisplay:10.37,2013-02-10 06:04:00,
2013-02-10 00:09:00,37.6,30.7,29.29,SSE,160,15.0,15.0,76,0.00,-RA,,0.00,WeatherDisplay:10.37,2013-02-10 06:09:00,
2013-02-10 00:14:00,37.8,30.9,29.29,SSE,163,15.0,15.0,76,0.00,-RA,,0.00,WeatherDisplay:10.37,2013-02-10 06:14:00,
2013-02-10 00:24:00,37.8,30.9,29.29,SSE,161,15.0,15.0,76,0.00,-RA,,0.00,WeatherDisplay:10.37,2013-02-10 06:24:00,
2013-02-10 00:29:00,37.8,30.5,29.29,SSE,160,15.0,15.0,75,0.00,-RA,,0.00,WeatherDisplay:10.37,2013-02-10 06:29:00,
2013-02-10 00:34:00,37.9,30.7,29.29,SSE,160,15.0,15.0,75,0.00,OVC,,0.00,WeatherDisplay:10.37,2013-02-10 06:34:00,
2013-02-10 00:39:00,37.8,30.5,29.29,SSE,160,15.0,15.0,75,0.00,OVC,,0.00,WeatherDisplay:10.37,2013-02-10 06:39:00,
2013-02-10 00:44:00,37.6,30.7,29.29,SSE,160,15.0,15.0,76,0.00,OVC,,0.00,WeatherDisplay:10.37,2013-02-10 06:44:00,
2013-02-10 00:49:00,37.8,30.9,29.29,SSE,160,14.0,15.0,76,0.00,-RA,,0.01,WeatherDisplay:10.37,2013-02-10 06:49:00,
2013-02-10 00:54:00,37.8,30.9,29.29,SSE,162,14.0,14.0,76,0.00,-RA,,0.01,WeatherDisplay:10.37,2013-02-10 06:54:00,
2013-02-10 00:59:00,37.8,31.2,29.29,SSE,163,14.0,14.0,77,0.00,-RA,,0.01,WeatherDisplay:10.37,2013-02-10 06:59:00,
2013-02-10 01:04:00,37.9,31.4,29.29,SSE,160,15.0,15.0,77,0.00,-RA,,0.01,WeatherDisplay:10.37,2013-02-10 07:04:00,
2013-02-10 01:09:00,37.9,31.4,29.29,SSE,160,15.0,15.0,77,0.01,-RA,,0.03,WeatherDisplay:10.37,2013-02-10 07:09:00,
2013-02-10 01:14:00,37.9,31.4,29.29,SSE,160,15.0,15.0,77,0.00,-RA,,0.03,WeatherDisplay:10.37,2013-02-10 07:14:00,
2013-02-10 01:19:00,38.1,31.5,29.29,SSE,162,15.0,15.0,77,0.00,-RA,,0.03,WeatherDisplay:10.37,2013-02-10 07:19:00,
2013-02-10 01:24:00,37.9,31.7,29.29,SSE,166,15.0,15.0,78,0.00,-RA,,0.03,WeatherDisplay:10.37,2013-02-10 07:24:00,
2013-02-10 01:29:00,37.9,31.7,29.29,South,170,16.0,16.0,78,0.00,-RA,,0.03,WeatherDisplay:10.37,2013-02-10 07:29:00,
2013-02-10 01:34:00,37.9,31.7,29.29,SSE,166,16.0,16.0,78,0.00,-RA,,0.03,WeatherDisplay:10.37,2013-02-10 07:34:00,
2013-02-10 01:39:00,38.1,31.9,29.29,SSE,163,16.0,16.0,78,0.00,-RA,,0.03,WeatherDisplay:10.37,2013-02-10 07:39:00,
2013-02-10 01:44:00,38.1,32.2,29.29,SSE,160,16.0,16.0,79,0.00,-RA,,0.03,WeatherDisplay:10.37,2013-02-10 07:44:00,
2013-02-10 01:49:00,37.9,32.0,29.29,SSE,160,16.0,16.0,79,0.00,OVC,,0.03,WeatherDisplay:10.37,2013-02-10 07:49:00,
2013-02-10 01:54:00,37.9,32.0,29.29,SSE,158,16.0,16.0,79,0.00,OVC,,0.03,WeatherDisplay:10.37,2013-02-10 07:54:00,
2013-02-10 02:04:00,37.8,31.8,29.29,SSE,150,16.0,16.0,79,0.00,-RA,,0.03,WeatherDisplay:10.37,2013-02-10 08:04:00,
2013-02-10 02:09:00,37.8,31.8,29.29,SSE,151,16.0,16.0,79,0.00,-RA,,0.03,WeatherDisplay:10.37,2013-02-10 08:09:00,
2013-02-10 02:14:00,37.8,31.8,29.26,SSE,157,16.0,16.0,79,0.00,-RA,,0.03,WeatherDisplay:10.37,2013-02-10 08:14:00,
2013-02-10 02:19:00,37.6,32.0,29.26,SSE,153,16.0,16.0,80,0.00,-RA,,0.03,WeatherDisplay:10.37,2013-02-10 08:19:00,
2013-02-10 02:24:00,37.6,32.0,29.26,SSE,150,16.0,16.0,80,0.00,-RA,,0.03,WeatherDisplay:10.37,2013-02-10 08:24:00,
2013-02-10 02:29:00,37.6,32.0,29.26,SSE,150,16.0,16.0,80,0.00,-RA,,0.03,WeatherDisplay:10.37,2013-02-10 08:29:00,
2013-02-10 02:34:00,37.6,32.3,29.26,SSE,148,16.0,16.0,81,0.00,OVC,,0.03,WeatherDisplay:10.37,2013-02-10 08:34:00,
2013-02-10 02:39:00,37.8,32.5,29.24,SE,146,16.0,16.0,81,0.00,OVC,,0.03,WeatherDisplay:10.37,2013-02-10 08:39:00,
2013-02-10 02:44:00,37.9,32.9,29.24,SE,145,16.0,16.0,82,0.00,OVC,,0.03,WeatherDisplay:10.37,2013-02-10 08:44:00,
2013-02-10 02:49:00,37.9,32.9,29.24,SE,145,17.0,17.0,82,0.00,-RA,,0.03,WeatherDisplay:10.37,2013-02-10 08:49:00,
2013-02-10 02:54:00,37.9,32.9,29.24,SE,145,17.0,17.0,82,0.00,-RA,,0.03,WeatherDisplay:10.37,2013-02-10 08:54:00,
2013-02-10 02:59:00,37.9,32.9,29.24,SE,145,17.0,17.0,82,0.00,-RA,,0.03,WeatherDisplay:10.37,2013-02-10 08:59:00,
2013-02-10 03:04:00,38.1,33.4,29.24,SSE,152,17.0,17.0,83,0.00,OVC,,0.03,WeatherDisplay:10.37,2013-02-10 09:04:00,
2013-02-10 03:09:00,37.9,33.2,29.24,SSE,156,17.0,17.0,83,0.00,OVC,,0.03,WeatherDisplay:10.37,2013-02-10 09:09:00,
2013-02-10 03:14:00,38.1,33.4,29.24,SSE,153,16.0,17.0,83,0.00,OVC,,0.03,WeatherDisplay:10.37,2013-02-10 09:14:00,
2013-02-10 03:19:00,38.3,33.6,29.24,SSE,148,16.0,16.0,83,0.00,OVC,,0.03,WeatherDisplay:10.37,2013-02-10 09:19:00,
2013-02-10 03:24:00,38.3,33.6,29.24,SSE,147,16.0,16.0,83,0.00,OVC,,0.03,WeatherDisplay:10.37,2013-02-10 09:24:00,
2013-02-10 03:29:00,38.3,33.6,29.24,SE,145,16.0,16.0,83,0.00,OVC,,0.03,WeatherDisplay:10.37,2013-02-10 09:29:00,
2013-02-10 03:34:00,38.3,33.6,29.24,SE,145,15.0,16.0,83,0.00,-RA,,0.03,WeatherDisplay:10.37,2013-02-10 09:34:00,
2013-02-10 03:39:00,38.3,33.9,29.24,SE,143,15.0,15.0,84,0.00,-RA,,0.03,WeatherDisplay:10.37,2013-02-10 09:39:00,
2013-02-10 03:44:00,38.3,33.9,29.24,SE,137,15.0,15.0,84,0.00,-RA,,0.03,WeatherDisplay:10.37,2013-02-10 09:44:00,
2013-02-10 03:49:00,38.5,34.1,29.20,SE,135,14.0,15.0,84,0.00,OVC,,0.03,WeatherDisplay:10.37,2013-02-10 09:49:00,
2013-02-10 03:54:00,38.5,34.1,29.20,SE,135,14.0,14.0,84,0.00,OVC,,0.03,WeatherDisplay:10.37,2013-02-10 09:54:00,
2013-02-10 03:59:00,38.5,34.1,29.20,SE,135,13.0,13.0,84,0.00,OVC,,0.03,WeatherDisplay:10.37,2013-02-10 09:59:00,
2013-02-10 04:04:00,38.7,34.2,29.20,SE,135,12.0,13.0,84,0.00,OVC,,0.03,WeatherDisplay:10.37,2013-02-10 10:04:00,
2013-02-10 04:09:00,38.8,34.4,29.20,SE,131,12.0,12.0,84,0.00,OVC,,0.03,WeatherDisplay:10.37,2013-02-10 10:09:00,
2013-02-10 04:14:00,38.8,34.7,29.20,SE,127,12.0,12.0,85,0.00,OVC,,0.03,WeatherDisplay:10.37,2013-02-10 10:14:00,
2013-02-10 04:19:00,39.0,34.9,29.20,SE,130,10.0,12.0,85,0.00,OVC,,0.03,WeatherDisplay:10.37,2013-02-10 10:19:00,
2013-02-10 04:24:00,39.0,34.9,29.20,SE,130,10.0,11.0,85,0.01,RA,,0.04,WeatherDisplay:10.37,2013-02-10 10:24:00,
2013-02-10 04:29:00,39.2,34.8,29.20,SE,130,10.0,10.0,84,0.00,RA,,0.04,WeatherDisplay:10.37,2013-02-10 10:29:00,
2013-02-10 04:39:00,39.2,34.8,29.20,SE,132,10.0,10.0,84,0.00,-RA,,0.04,WeatherDisplay:10.37,2013-02-10 10:39:00,
2013-02-10 04:44:00,39.2,34.8,29.20,SE,133,10.0,11.0,84,0.00,-RA,,0.04,WeatherDisplay:10.37,2013-02-10 10:44:00,
2013-02-10 04:49:00,39.0,34.9,29.20,SE,134,12.0,12.0,85,0.00,-RA,,0.04,WeatherDisplay:10.37,2013-02-10 10:49:00,
2013-02-10 04:54:00,39.0,34.9,29.20,SE,135,12.0,12.0,85,0.00,-RA,,0.04,WeatherDisplay:10.37,2013-02-10 10:54:00,
2013-02-10 04:59:00,38.7,34.5,29.20,SE,135,13.0,13.0,85,0.00,-RA,,0.04,WeatherDisplay:10.37,2013-02-10 10:59:00,
2013-02-10 05:04:00,38.8,34.7,29.18,SE,135,13.0,13.0,85,0.00,OVC,,0.04,WeatherDisplay:10.37,2013-02-10 11:04:00,
2013-02-10 05:09:00,38.8,34.7,29.18,SE,136,13.0,13.0,85,0.00,OVC,,0.04,WeatherDisplay:10.37,2013-02-10 11:09:00,
2013-02-10 05:14:00,38.8,34.7,29.18,SE,139,14.0,14.0,85,0.00,OVC,,0.04,WeatherDisplay:10.37,2013-02-10 11:14:00,
2013-02-10 05:19:00,38.7,34.5,29.18,SE,142,15.0,15.0,85,0.00,OVC,,0.04,WeatherDisplay:10.37,2013-02-10 11:19:00,
2013-02-10 05:24:00,38.7,34.5,29.18,SE,144,15.0,15.0,85,0.00,OVC,,0.04,WeatherDisplay:10.37,2013-02-10 11:24:00,
2013-02-10 05:29:00,38.7,34.5,29.18,SE,145,15.0,15.0,85,0.00,OVC,,0.04,WeatherDisplay:10.37,2013-02-10 11:29:00,
2013-02-10 05:34:00,38.1,33.7,29.15,SE,141,15.0,15.0,84,0.00,BKN,,0.04,WeatherDisplay:10.37,2013-02-10 11:34:00,
2013-02-10 05:39:00,38.1,33.7,29.15,SE,139,15.0,15.0,84,0.00,BKN,,0.04,WeatherDisplay:10.37,2013-02-10 11:39:00,
2013-02-10 05:44:00,38.3,33.9,29.15,SE,136,15.0,15.0,84,0.00,BKN,,0.04,WeatherDisplay:10.37,2013-02-10 11:44:00,
2013-02-10 05:49:00,38.3,33.9,29.18,SE,139,15.0,15.0,84,0.00,BKN,,0.04,WeatherDisplay:10.37,2013-02-10 11:49:00,
2013-02-10 05:54:00,38.5,34.1,29.18,SE,140,16.0,16.0,84,0.00,BKN,,0.04,WeatherDisplay:10.37,2013-02-10 11:54:00,
2013-02-10 05:59:00,38.7,34.2,29.15,SE,144,16.0,16.0,84,0.00,BKN,,0.04,WeatherDisplay:10.37,2013-02-10 11:59:00,
2013-02-10 06:04:00,38.5,34.1,29.15,SE,138,16.0,16.0,84,0.00,BKN,,0.04,WeatherDisplay:10.37,2013-02-10 12:04:00,
2013-02-10 06:09:00,38.8,34.4,29.15,SE,137,16.0,16.0,84,0.00,BKN,,0.04,WeatherDisplay:10.37,2013-02-10 12:09:00,
2013-02-10 06:14:00,39.0,34.6,29.15,SE,142,17.0,17.0,84,0.01,RA,,0.06,WeatherDisplay:10.37,2013-02-10 12:14:00,
2013-02-10 06:19:00,39.0,34.3,29.15,SE,143,17.0,17.0,83,0.00,RA,,0.06,WeatherDisplay:10.37,2013-02-10 12:19:00,
2013-02-10 06:24:00,38.8,34.1,29.15,SE,141,17.0,17.0,83,0.00,BKN,,0.06,WeatherDisplay:10.37,2013-02-10 12:24:00,
2013-02-10 06:29:00,39.2,34.2,29.15,SE,140,17.0,17.0,82,0.00,BKN,,0.06,WeatherDisplay:10.37,2013-02-10 12:29:00,
2013-02-10 06:34:00,39.2,34.2,29.15,SSE,151,17.0,17.0,82,0.00,OVC,,0.06,WeatherDisplay:10.37,2013-02-10 12:34:00,
2013-02-10 06:39:00,39.4,34.3,29.15,SSE,157,17.0,18.0,82,0.00,OVC,,0.06,WeatherDisplay:10.37,2013-02-10 12:39:00,
2013-02-10 06:44:00,39.4,34.3,29.15,SSE,160,17.0,18.0,82,0.00,OVC,,0.06,WeatherDisplay:10.37,2013-02-10 12:44:00,
2013-02-10 06:49:00,39.4,34.3,29.15,SSE,158,18.0,18.0,82,0.00,OVC,,0.06,WeatherDisplay:10.37,2013-02-10 12:49:00,
2013-02-10 06:54:00,39.6,34.5,29.15,SSE,159,18.0,18.0,82,0.00,OVC,,0.06,WeatherDisplay:10.37,2013-02-10 12:54:00,
2013-02-10 06:59:00,39.6,34.5,29.15,SSE,160,18.0,18.0,82,0.00,OVC,,0.06,WeatherDisplay:10.37,2013-02-10 12:59:00,
2013-02-10 07:04:00,39.9,34.6,29.12,SSE,160,18.0,19.0,81,0.00,BKN,,0.06,WeatherDisplay:10.37,2013-02-10 13:04:00,
2013-02-10 07:09:00,39.9,34.6,29.12,SSE,160,18.0,19.0,81,0.00,BKN,,0.06,WeatherDisplay:10.37,2013-02-10 13:09:00,
2013-02-10 07:14:00,39.9,34.6,29.12,SSE,160,18.0,19.0,81,0.00,BKN,,0.06,WeatherDisplay:10.37,2013-02-10 13:14:00,
2013-02-10 07:19:00,39.9,34.6,29.12,SSE,160,18.0,19.0,81,0.00,BKN,,0.06,WeatherDisplay:10.37,2013-02-10 13:19:00,
2013-02-10 07:24:00,40.1,34.7,29.12,SSE,160,20.0,20.0,81,0.00,BKN,,0.06,WeatherDisplay:10.37,2013-02-10 13:24:00,
2013-02-10 07:29:00,40.3,34.6,29.12,SSE,158,20.0,20.0,80,0.00,BKN,,0.06,WeatherDisplay:10.37,2013-02-10 13:29:00,
2013-02-10 07:34:00,40.3,34.6,29.12,SSE,159,20.0,20.0,80,0.00,OVC,,0.06,WeatherDisplay:10.37,2013-02-10 13:34:00,
2013-02-10 07:39:00,40.3,34.6,29.12,SSE,160,20.0,20.0,80,0.00,OVC,,0.06,WeatherDisplay:10.37,2013-02-10 13:39:00,
2013-02-10 07:44:00,40.5,34.8,29.12,SSE,160,20.0,20.0,80,0.00,OVC,,0.06,WeatherDisplay:10.37,2013-02-10 13:44:00,
2013-02-10 07:49:00,40.5,35.1,29.12,SSE,162,21.0,21.0,81,0.01,RA,,0.07,WeatherDisplay:10.37,2013-02-10 13:49:00,
2013-02-10 07:54:00,40.3,34.9,29.09,SSE,164,21.0,21.0,81,0.01,RA,,0.09,WeatherDisplay:10.37,2013-02-10 13:54:00,
2013-02-10 07:59:00,40.6,35.6,29.09,SSE,165,22.0,22.0,82,0.01,RA,,0.10,WeatherDisplay:10.37,2013-02-10 13:59:00,
2013-02-10 08:04:00,40.8,35.7,29.09,SSE,165,23.0,23.0,82,0.00,RA,,0.11,WeatherDisplay:10.37,2013-02-10 14:04:00,
2013-02-10 08:09:00,41.2,35.8,29.09,SSE,164,24.0,24.0,81,0.00,RA,,0.11,WeatherDisplay:10.37,2013-02-10 14:09:00,
2013-02-10 08:14:00,41.5,36.1,29.09,SSE,156,24.0,24.0,81,0.00,OVC,,0.11,WeatherDisplay:10.37,2013-02-10 14:14:00,
2013-02-10 08:24:00,41.5,36.1,29.09,SSE,150,25.0,25.0,81,0.00,RA,,0.13,WeatherDisplay:10.37,2013-02-10 14:24:00,
2013-02-10 08:29:00,41.5,35.8,29.09,SSE,152,24.0,25.0,80,0.00,OVC,,0.13,WeatherDisplay:10.37,2013-02-10 14:29:00,
2013-02-10 08:39:00,41.7,36.0,29.09,SSE,155,24.0,24.0,80,0.00,BKN,,0.13,WeatherDisplay:10.37,2013-02-10 14:39:00,
2013-02-10 08:44:00,41.7,35.7,29.09,SSE,152,24.0,24.0,79,0.00,BKN,,0.13,WeatherDisplay:10.37,2013-02-10 14:44:00,
2013-02-10 08:49:00,41.7,35.7,29.09,SSE,150,24.0,24.0,79,0.00,BKN,,0.13,WeatherDisplay:10.37,2013-02-10 14:49:00,
2013-02-10 08:54:00,41.7,35.7,29.09,SSE,150,24.0,24.0,79,0.00,BKN,,0.13,WeatherDisplay:10.37,2013-02-10 14:54:00,
2013-02-10 08:59:00,42.3,36.5,29.09,SSE,164,23.0,24.0,80,0.00,RA,,0.14,WeatherDisplay:10.37,2013-02-10 14:59:00,
2013-02-10 09:09:00,42.4,37.0,29.09,South,173,23.0,23.0,81,0.00,RA,,0.17,WeatherDisplay:10.37,2013-02-10 15:09:00,
2013-02-10 09:14:00,42.4,37.0,29.09,South,175,23.0,23.0,81,0.00,BKN,,0.17,WeatherDisplay:10.37,2013-02-10 15:14:00,
2013-02-10 09:19:00,42.4,37.0,29.09,SSE,168,22.0,23.0,81,0.00,OVC,,0.17,WeatherDisplay:10.37,2013-02-10 15:19:00,
2013-02-10 09:24:00,42.6,37.2,29.06,SSE,167,23.0,23.0,81,0.01,RA,,0.18,WeatherDisplay:10.37,2013-02-10 15:24:00,
2013-02-10 09:34:00,42.8,37.4,29.06,South,170,23.0,23.0,81,0.03,RA,,0.21,WeatherDisplay:10.37,2013-02-10 15:34:00,
2013-02-10 09:39:00,42.8,37.4,29.06,South,170,23.0,23.0,81,0.00,RA,,0.21,WeatherDisplay:10.37,2013-02-10 15:39:00,
2013-02-10 09:44:00,42.8,37.4,29.06,South,170,23.0,23.0,81,0.00,OVC,,0.21,WeatherDisplay:10.37,2013-02-10 15:44:00,
2013-02-10 09:49:00,42.8,37.4,29.06,South,170,23.0,23.0,81,0.00,OVC,,0.21,WeatherDisplay:10.37,2013-02-10 15:49:00,
2013-02-10 09:54:00,43.2,38.0,29.06,South,170,23.0,23.0,82,0.03,RA,,0.24,WeatherDisplay:10.37,2013-02-10 15:54:00,
2013-02-10 10:04:00,43.3,38.2,29.06,South,170,24.0,24.0,82,0.01,RA,,0.25,WeatherDisplay:10.37,2013-02-10 16:04:00,
2013-02-10 10:09:00,43.5,38.4,29.06,South,172,24.0,24.0,82,0.00,RA,,0.27,WeatherDisplay:10.37,2013-02-10 16:09:00,
2013-02-10 10:14:00,43.7,38.6,29.06,South,173,25.0,25.0,82,0.00,RA,,0.27,WeatherDisplay:10.37,2013-02-10 16:14:00,
2013-02-10 10:24:00,43.7,38.6,29.03,SSE,168,25.0,26.0,82,0.01,RA,,0.30,WeatherDisplay:10.37,2013-02-10 16:24:00,
2013-02-10 10:34:00,43.9,38.7,29.03,SSE,165,25.0,26.0,82,0.00,RA,,0.33,WeatherDisplay:10.37,2013-02-10 16:34:00,
2013-02-10 10:39:00,43.9,38.7,29.03,SSE,166,25.0,26.0,82,0.00,RA,,0.33,WeatherDisplay:10.37,2013-02-10 16:39:00,
2013-02-10 10:44:00,44.1,38.9,29.00,South,169,26.0,26.0,82,0.00,OVC,,0.33,WeatherDisplay:10.37,2013-02-10 16:44:00,
2013-02-10 10:49:00,44.1,38.9,29.00,SSE,166,26.0,27.0,82,0.00,OVC,,0.33,WeatherDisplay:10.37,2013-02-10 16:49:00,
2013-02-10 10:54:00,44.2,39.1,29.00,South,169,28.0,28.0,82,0.00,OVC,,0.33,WeatherDisplay:10.37,2013-02-10 16:54:00,
2013-02-10 10:59:00,44.4,39.3,29.00,South,175,29.0,29.0,82,0.00,OVC,,0.33,WeatherDisplay:10.37,2013-02-10 16:59:00,
2013-02-10 11:04:00,44.4,39.3,29.00,South,175,29.0,29.0,82,0.00,-RA,,0.33,WeatherDisplay:10.37,2013-02-10 17:04:00,
2013-02-10 11:09:00,44.4,39.3,29.00,South,174,29.0,29.0,82,0.00,-RA,,0.33,WeatherDisplay:10.37,2013-02-10 17:09:00,
2013-02-10 11:14:00,44.6,39.1,29.00,South,171,30.0,30.0,81,0.00,-RA,,0.33,WeatherDisplay:10.37,2013-02-10 17:14:00,
2013-02-10 11:19:00,44.6,39.1,29.00,South,172,30.0,30.0,81,0.01,-RA,,0.34,WeatherDisplay:10.37,2013-02-10 17:19:00,
2013-02-10 11:24:00,44.8,39.3,29.00,South,174,30.0,30.0,81,0.00,-RA,,0.34,WeatherDisplay:10.37,2013-02-10 17:24:00,
2013-02-10 11:29:00,45.0,39.5,28.97,South,171,31.0,31.0,81,0.00,-RA,,0.34,WeatherDisplay:10.37,2013-02-10 17:29:00,
2013-02-10 11:34:00,45.0,39.5,28.97,SSE,168,31.0,31.0,81,0.00,-RA,,0.34,WeatherDisplay:10.37,2013-02-10 17:34:00,
2013-02-10 11:39:00,45.3,39.8,28.97,SSE,166,31.0,31.0,81,0.00,-RA,,0.34,WeatherDisplay:10.37,2013-02-10 17:39:00,
2013-02-10 11:44:00,45.7,40.2,28.97,SSE,167,31.0,31.0,81,0.00,-RA,,0.34,WeatherDisplay:10.37,2013-02-10 17:44:00,
2013-02-10 11:49:00,46.2,40.7,28.97,South,170,31.0,31.0,81,0.00,-RA,,0.34,WeatherDisplay:10.37,2013-02-10 17:49:00,
2013-02-10 11:54:00,46.2,40.7,28.97,South,170,31.0,31.0,81,0.00,-RA,,0.34,WeatherDisplay:10.37,2013-02-10 17:54:00,
2013-02-10 11:59:00,46.9,41.1,28.97,South,170,31.0,31.0,80,0.00,-RA,,0.34,WeatherDisplay:10.37,2013-02-10 17:59:00,
2013-02-10 12:04:00,47.1,40.9,28.94,South,171,31.0,31.0,79,0.00,-RA,,0.34,WeatherDisplay:10.37,2013-02-10 18:04:00,
2013-02-10 12:09:00,47.1,40.9,28.94,South,171,31.0,32.0,79,0.00,-RA,,0.34,WeatherDisplay:10.37,2013-02-10 18:09:00,
2013-02-10 12:14:00,48.0,41.8,28.94,South,170,32.0,32.0,79,0.00,-RA,,0.34,WeatherDisplay:10.37,2013-02-10 18:14:00,
2013-02-10 12:19:00,48.7,41.8,28.94,South,172,32.0,32.0,77,0.00,-RA,,0.34,WeatherDisplay:10.37,2013-02-10 18:19:00,
2013-02-10 12:24:00,49.1,42.2,28.94,South,176,32.0,32.0,77,0.00,-RA,,0.34,WeatherDisplay:10.37,2013-02-10 18:24:00,
2013-02-10 12:29:00,49.6,42.4,28.94,South,176,32.0,33.0,76,0.00,-RA,,0.34,WeatherDisplay:10.37,2013-02-10 18:29:00,
2013-02-10 12:34:00,49.3,41.7,28.94,South,173,32.0,33.0,75,0.00,BKN,,0.34,WeatherDisplay:10.37,2013-02-10 18:34:00,
2013-02-10 12:39:00,48.9,41.3,28.94,South,174,32.0,33.0,75,0.00,BKN,,0.34,WeatherDisplay:10.37,2013-02-10 18:39:00,
2013-02-10 12:44:00,48.6,41.0,28.91,South,179,33.0,33.0,75,0.00,BKN,,0.34,WeatherDisplay:10.37,2013-02-10 18:44:00,
2013-02-10 12:49:00,48.7,41.2,28.91,South,180,33.0,33.0,75,0.00,BKN,,0.34,WeatherDisplay:10.37,2013-02-10 18:49:00,
2013-02-10 12:54:00,48.7,41.2,28.91,South,178,33.0,34.0,75,0.00,BKN,,0.34,WeatherDisplay:10.37,2013-02-10 18:54:00,
2013-02-10 12:59:00,48.9,41.3,28.91,South,175,33.0,34.0,75,0.00,BKN,,0.34,WeatherDisplay:10.37,2013-02-10 18:59:00,
2013-02-10 13:04:00,49.1,41.5,28.91,South,175,33.0,34.0,75,0.00,OVC,,0.34,WeatherDisplay:10.37,2013-02-10 19:04:00,
2013-02-10 13:09:00,48.4,40.5,28.91,South,173,33.0,34.0,74,0.00,OVC,,0.34,WeatherDisplay:10.37,2013-02-10 19:09:00,
2013-02-10 13:14:00,48.2,40.6,28.91,South,172,35.0,35.0,75,0.00,OVC,,0.34,WeatherDisplay:10.37,2013-02-10 19:14:00,
2013-02-10 13:19:00,48.0,41.2,28.88,South,175,35.0,35.0,77,0.00,OVC,,0.34,WeatherDisplay:10.37,2013-02-10 19:19:00,
2013-02-10 13:24:00,48.0,41.2,28.88,South,175,35.0,35.0,77,0.00,OVC,,0.34,WeatherDisplay:10.37,2013-02-10 19:24:00,
2013-02-10 13:29:00,48.0,41.2,28.88,South,173,35.0,35.0,77,0.00,OVC,,0.34,WeatherDisplay:10.37,2013-02-10 19:29:00,
2013-02-10 13:34:00,48.0,41.5,28.88,South,172,35.0,35.0,78,0.00,OVC,,0.34,WeatherDisplay:10.37,2013-02-10 19:34:00,
2013-02-10 13:39:00,48.0,41.5,28.88,South,173,35.0,35.0,78,0.00,OVC,,0.34,WeatherDisplay:10.37,2013-02-10 19:39:00,
2013-02-10 13:49:00,48.4,41.5,28.85,South,177,35.0,35.0,77,0.00,OVC,,0.34,WeatherDisplay:10.37,2013-02-10 19:49:00,
2013-02-10 13:54:00,48.4,41.5,28.85,South,179,35.0,35.0,77,0.00,OVC,,0.34,WeatherDisplay:10.37,2013-02-10 19:54:00,
2013-02-10 14:04:00,48.2,41.7,28.88,South,180,35.0,35.0,78,0.00,OVC,,0.34,WeatherDisplay:10.37,2013-02-10 20:04:00,
2013-02-10 14:09:00,48.2,41.7,28.88,South,180,35.0,35.0,78,0.00,OVC,,0.34,WeatherDisplay:10.37,2013-02-10 20:09:00,
2013-02-10 14:14:00,48.0,41.8,28.88,South,180,33.0,35.0,79,0.00,OVC,,0.34,WeatherDisplay:10.37,2013-02-10 20:14:00,
2013-02-10 14:24:00,48.2,42.0,28.88,South,180,33.0,33.0,79,0.00,OVC,,0.34,WeatherDisplay:10.37,2013-02-10 20:24:00,
2013-02-10 14:29:00,48.4,42.2,28.88,South,180,32.0,33.0,79,0.00,OVC,,0.34,WeatherDisplay:10.37,2013-02-10 20:29:00,
2013-02-10 14:34:00,48.4,42.5,28.88,South,183,32.0,32.0,80,0.00,OVC,,0.34,WeatherDisplay:10.37,2013-02-10 20:34:00,
2013-02-10 14:39:00,48.4,42.5,28.88,South,185,32.0,32.0,80,0.00,OVC,,0.34,WeatherDisplay:10.37,2013-02-10 20:39:00,
2013-02-10 14:44:00,48.4,42.5,28.88,South,185,32.0,32.0,80,0.00,OVC,,0.34,WeatherDisplay:10.37,2013-02-10 20:44:00,
2013-02-10 14:49:00,48.4,42.5,28.88,South,185,32.0,32.0,80,0.00,OVC,,0.34,WeatherDisplay:10.37,2013-02-10 20:49:00,
2013-02-10 14:54:00,48.4,42.5,28.88,South,185,32.0,32.0,80,0.00,OVC,,0.34,WeatherDisplay:10.37,2013-02-10 20:54:00,
2013-02-10 15:04:00,48.4,42.5,28.88,South,185,32.0,32.0,80,0.00,OVC,,0.34,WeatherDisplay:10.37,2013-02-10 21:04:00,
2013-02-10 15:09:00,48.7,43.5,28.88,South,187,31.0,32.0,82,0.00,OVC,,0.34,WeatherDisplay:10.37,2013-02-10 21:09:00,
2013-02-10 15:14:00,48.7,43.5,28.88,South,188,31.0,32.0,82,0.00,OVC,,0.34,WeatherDisplay:10.37,2013-02-10 21:14:00,
2013-02-10 15:19:00,48.7,43.5,28.85,South,185,30.0,31.0,82,0.00,OVC,,0.34,WeatherDisplay:10.37,2013-02-10 21:19:00,
2013-02-10 15:24:00,48.7,43.5,28.85,South,185,30.0,30.0,82,0.00,OVC,,0.34,WeatherDisplay:10.37,2013-02-10 21:24:00,
2013-02-10 15:29:00,48.7,43.5,28.85,South,185,29.0,30.0,82,0.00,OVC,,0.34,WeatherDisplay:10.37,2013-02-10 21:29:00,
2013-02-10 15:34:00,48.7,43.5,28.85,South,182,29.0,29.0,82,0.00,OVC,,0.34,WeatherDisplay:10.37,2013-02-10 21:34:00,
2013-02-10 15:39:00,48.7,43.5,28.85,South,180,29.0,29.0,82,0.00,OVC,,0.34,WeatherDisplay:10.37,2013-02-10 21:39:00,
2013-02-10 15:44:00,48.7,43.5,28.85,South,183,29.0,29.0,82,0.00,OVC,,0.34,WeatherDisplay:10.37,2013-02-10 21:44:00,
2013-02-10 15:49:00,48.7,43.5,28.85,South,185,28.0,29.0,82,0.00,OVC,,0.34,WeatherDisplay:10.37,2013-02-10 21:49:00,
2013-02-10 15:54:00,48.7,43.5,28.85,South,185,28.0,28.0,82,0.00,OVC,,0.34,WeatherDisplay:10.37,2013-02-10 21:54:00,
2013-02-10 15:59:00,48.7,43.5,28.85,South,187,28.0,28.0,82,0.00,OVC,,0.34,WeatherDisplay:10.37,2013-02-10 21:59:00,
2013-02-10 16:04:00,48.7,43.5,28.85,South,187,28.0,28.0,82,0.00,OVC,,0.34,WeatherDisplay:10.37,2013-02-10 22:04:00,
2013-02-10 16:09:00,48.7,43.5,28.85,South,185,28.0,28.0,82,0.00,OVC,,0.34,WeatherDisplay:10.37,2013-02-10 22:09:00,
2013-02-10 16:14:00,48.7,43.5,28.85,South,183,26.0,27.0,82,0.00,OVC,,0.34,WeatherDisplay:10.37,2013-02-10 22:14:00,
2013-02-10 16:19:00,48.7,43.5,28.85,South,180,26.0,27.0,82,0.00,OVC,,0.34,WeatherDisplay:10.37,2013-02-10 22:19:00,
2013-02-10 16:24:00,48.7,43.5,28.85,South,180,26.0,26.0,82,0.00,OVC,,0.34,WeatherDisplay:10.37,2013-02-10 22:24:00,
2013-02-10 16:29:00,48.7,43.5,28.85,South,183,26.0,26.0,82,0.00,OVC,,0.34,WeatherDisplay:10.37,2013-02-10 22:29:00,
2013-02-10 16:34:00,48.7,43.5,28.85,South,184,26.0,26.0,82,0.00,OVC,,0.34,WeatherDisplay:10.37,2013-02-10 22:34:00,
2013-02-10 16:44:00,48.7,43.5,28.85,South,190,25.0,26.0,82,0.00,OVC,,0.34,WeatherDisplay:10.37,2013-02-10 22:44:00,
2013-02-10 16:49:00,48.7,43.5,28.85,SSW,195,25.0,26.0,82,0.00,OVC,,0.34,WeatherDisplay:10.37,2013-02-10 22:49:00,
2013-02-10 16:59:00,48.7,43.5,28.88,SSW,199,25.0,26.0,82,0.00,OVC,,0.34,WeatherDisplay:10.37,2013-02-10 22:59:00,
2013-02-10 17:04:00,48.7,43.5,28.88,SSW,205,25.0,25.0,82,0.00,OVC,,0.34,WeatherDisplay:10.37,2013-02-10 23:04:00,
2013-02-10 17:09:00,48.7,43.5,28.88,SSW,206,24.0,25.0,82,0.00,OVC,,0.34,WeatherDisplay:10.37,2013-02-10 23:09:00,
2013-02-10 17:14:00,48.7,43.5,28.88,SSW,211,24.0,24.0,82,0.00,OVC,,0.34,WeatherDisplay:10.37,2013-02-10 23:14:00,
2013-02-10 17:19:00,48.7,43.5,28.88,SSW,208,23.0,24.0,82,0.00,OVC,,0.34,WeatherDisplay:10.37,2013-02-10 23:19:00,
2013-02-10 17:29:00,48.7,43.5,28.88,SSW,208,23.0,23.0,82,0.00,OVC,,0.34,WeatherDisplay:10.37,2013-02-10 23:29:00,
2013-02-10 17:34:00,48.7,43.5,28.88,SSW,205,23.0,23.0,82,0.00,OVC,,0.34,WeatherDisplay:10.37,2013-02-10 23:34:00,
2013-02-10 17:39:00,48.7,43.5,28.88,SSW,205,23.0,23.0,82,0.00,OVC,,0.34,WeatherDisplay:10.37,2013-02-10 23:39:00,
2013-02-10 17:44:00,48.7,43.5,28.88,SSW,205,23.0,23.0,82,0.00,OVC,,0.34,WeatherDisplay:10.37,2013-02-10 23:44:00,
2013-02-10 17:49:00,48.7,43.5,28.88,SSW,205,23.0,23.0,82,0.00,OVC,,0.34,WeatherDisplay:10.37,2013-02-10 23:49:00,
2013-02-10 17:54:00,48.7,43.5,28.88,SSW,205,23.0,23.0,82,0.00,OVC,,0.34,WeatherDisplay:10.37,2013-02-10 23:54:00,
2013-02-10 17:59:00,50.7,45.1,28.88,SSW,203,23.0,23.0,81,0.00,OVC,,0.34,WeatherDisplay:10.37,2013-02-10 23:59:00,
2013-02-10 18:04:00,50.7,45.1,28.88,SSW,203,23.0,23.0,81,0.00,OVC,,0.34,WeatherDisplay:10.37,2013-02-11 00:04:00,
2013-02-10 18:09:00,50.7,45.1,28.88,SSW,205,23.0,23.0,81,0.00,OVC,,0.34,WeatherDisplay:10.37,2013-02-11 00:09:00,
2013-02-10 18:14:00,50.7,45.1,28.88,SSW,202,23.0,23.0,81,0.00,OVC,,0.34,WeatherDisplay:10.37,2013-02-11 00:14:00,
2013-02-10 18:19:00,50.7,45.1,28.88,SSW,204,23.0,23.0,81,0.00,OVC,,0.34,WeatherDisplay:10.37,2013-02-11 00:19:00,
2013-02-10 18:24:00,50.7,45.1,28.88,SSW,205,24.0,24.0,81,0.00,OVC,,0.34,WeatherDisplay:10.37,2013-02-11 00:24:00,
2013-02-10 18:29:00,50.7,45.1,28.88,SSW,205,24.0,24.0,81,0.00,OVC,,0.34,WeatherDisplay:10.37,2013-02-11 00:29:00,
2013-02-10 18:34:00,50.7,45.1,28.88,SSW,205,25.0,25.0,81,0.00,OVC,,0.34,WeatherDisplay:10.37,2013-02-11 00:34:00,
2013-02-10 18:39:00,50.7,45.1,28.88,SSW,204,25.0,25.0,81,0.00,OVC,,0.34,WeatherDisplay:10.37,2013-02-11 00:39:00,
2013-02-10 18:44:00,50.7,45.1,28.88,SSW,198,25.0,25.0,81,0.00,OVC,,0.34,WeatherDisplay:10.37,2013-02-11 00:44:00,
2013-02-10 18:49:00,50.7,45.1,28.88,SSW,197,25.0,25.0,81,0.00,SCT,,0.34,WeatherDisplay:10.37,2013-02-11 00:49:00,
2013-02-10 18:54:00,50.7,45.1,28.88,SSW,198,25.0,25.0,81,0.00,SCT,,0.34,WeatherDisplay:10.37,2013-02-11 00:54:00,
2013-02-10 18:59:00,50.7,45.1,28.88,SSW,200,24.0,25.0,81,0.00,SCT,,0.34,WeatherDisplay:10.37,2013-02-11 00:59:00,
2013-02-10 19:04:00,50.7,45.1,28.88,SSW,200,25.0,25.0,81,0.00,SCT,,0.34,WeatherDisplay:10.37,2013-02-11 01:04:00,
2013-02-10 19:09:00,50.7,45.1,28.88,SSW,200,24.0,25.0,81,0.00,SCT,,0.34,WeatherDisplay:10.37,2013-02-11 01:09:00,
2013-02-10 19:14:00,50.7,45.1,28.88,SSW,200,24.0,25.0,81,0.00,SCT,,0.34,WeatherDisplay:10.37,2013-02-11 01:14:00,
2013-02-10 19:19:00,50.7,45.1,28.88,SSW,200,24.0,25.0,81,0.00,SCT,,0.34,WeatherDisplay:10.37,2013-02-11 01:19:00,
2013-02-10 19:24:00,50.7,45.1,28.88,SSW,200,24.0,25.0,81,0.00,SCT,,0.34,WeatherDisplay:10.37,2013-02-11 01:24:00,
2013-02-10 19:29:00,50.7,45.1,28.88,SSW,200,24.0,24.0,81,0.00,SCT,,0.34,WeatherDisplay:10.37,2013-02-11 01:29:00,
2013-02-10 19:34:00,50.7,45.1,28.88,SSW,200,24.0,24.0,81,0.00,SCT,,0.34,WeatherDisplay:10.37,2013-02-11 01:34:00,
2013-02-10 19:39:00,50.7,45.1,28.88,SSW,200,24.0,24.0,81,0.00,SCT,,0.34,WeatherDisplay:10.37,2013-02-11 01:39:00,
2013-02-10 19:44:00,50.7,45.1,28.88,SSW,200,24.0,24.0,81,0.00,SCT,,0.34,WeatherDisplay:10.37,2013-02-11 01:44:00,
2013-02-10 19:49:00,50.7,45.1,28.88,SSW,203,24.0,24.0,81,0.00,BKN,,0.34,WeatherDisplay:10.37,2013-02-11 01:49:00,
2013-02-10 19:54:00,50.7,45.1,28.88,SSW,205,24.0,24.0,81,0.00,BKN,,0.34,WeatherDisplay:10.37,2013-02-11 01:54:00,
2013-02-10 19:59:00,50.7,45.1,28.88,SSW,202,24.0,24.0,81,0.00,BKN,,0.34,WeatherDisplay:10.37,2013-02-11 01:59:00,
2013-02-10 20:04:00,50.7,45.1,28.88,SSW,200,24.0,24.0,81,0.00,SCT,,0.34,WeatherDisplay:10.37,2013-02-11 02:04:00,
2013-02-10 20:09:00,50.7,45.1,28.88,SSW,200,24.0,24.0,81,0.00,SCT,,0.34,WeatherDisplay:10.37,2013-02-11 02:09:00,
2013-02-10 20:14:00,50.7,45.1,28.88,SSW,200,24.0,25.0,81,0.00,SCT,,0.34,WeatherDisplay:10.37,2013-02-11 02:14:00,
2013-02-10 20:19:00,50.7,45.1,28.88,SSW,200,25.0,25.0,81,0.00,SCT,,0.34,WeatherDisplay:10.37,2013-02-11 02:19:00,
2013-02-10 20:24:00,50.7,45.1,28.88,SSW,200,25.0,25.0,81,0.00,SCT,,0.34,WeatherDisplay:10.37,2013-02-11 02:24:00,
2013-02-10 20:29:00,50.7,45.1,28.88,SSW,200,25.0,25.0,81,0.00,SCT,,0.34,WeatherDisplay:10.37,2013-02-11 02:29:00,
2013-02-10 20:34:00,50.7,45.1,28.88,SW,214,25.0,25.0,81,0.00,SCT,,0.34,WeatherDisplay:10.37,2013-02-11 02:34:00,
2013-02-10 20:39:00,50.7,45.1,28.88,SW,220,25.0,25.0,81,0.00,SCT,,0.34,WeatherDisplay:10.37,2013-02-11 02:39:00,
2013-02-10 20:44:00,50.7,45.1,28.91,SW,220,25.0,26.0,81,0.00,SCT,,0.34,WeatherDisplay:10.37,2013-02-11 02:44:00,
2013-02-10 20:49:00,50.7,45.1,28.91,SW,222,25.0,26.0,81,0.00,CLR,,0.34,WeatherDisplay:10.37,2013-02-11 02:49:00,
2013-02-10 20:54:00,50.7,45.1,28.91,SW,223,25.0,26.0,81,0.00,CLR,,0.34,WeatherDisplay:10.37,2013-02-11 02:54:00,
2013-02-10 20:59:00,50.7,45.1,28.91,SW,223,25.0,26.0,81,0.00,CLR,,0.34,WeatherDisplay:10.37,2013-02-11 02:59:00,
2013-02-10 21:04:00,50.7,45.1,28.91,SW,220,25.0,25.0,81,0.00,CLR,,0.34,WeatherDisplay:10.37,2013-02-11 03:04:00,
2013-02-10 21:09:00,50.7,45.1,28.91,SW,220,25.0,25.0,81,0.00,CLR,,0.34,WeatherDisplay:10.37,2013-02-11 03:09:00,
2013-02-10 21:14:00,50.7,45.1,28.91,SW,220,25.0,25.0,81,0.00,CLR,,0.34,WeatherDisplay:10.37,2013-02-11 03:14:00,
2013-02-10 21:19:00,50.7,45.1,28.91,SW,220,25.0,25.0,81,0.00,CLR,,0.34,WeatherDisplay:10.37,2013-02-11 03:19:00,
2013-02-10 21:24:00,50.7,45.1,28.91,SW,220,25.0,25.0,81,0.00,CLR,,0.34,WeatherDisplay:10.37,2013-02-11 03:24:00,
2013-02-10 21:29:00,50.7,45.1,28.91,SW,220,25.0,25.0,81,0.00,CLR,,0.34,WeatherDisplay:10.37,2013-02-11 03:29:00,
2013-02-10 21:39:00,50.7,45.1,28.91,SW,230,24.0,25.0,81,0.00,CLR,,0.34,WeatherDisplay:10.37,2013-02-11 03:39:00,
2013-02-10 21:44:00,48.6,42.3,28.91,SW,230,23.0,23.0,79,0.00,CLR,,0.34,WeatherDisplay:10.37,2013-02-11 03:44:00,
2013-02-10 21:49:00,48.6,42.3,28.91,SW,230,21.0,23.0,79,0.00,CLR,,0.34,WeatherDisplay:10.37,2013-02-11 03:49:00,
2013-02-10 21:54:00,48.6,42.3,28.91,SW,230,21.0,21.0,79,0.00,CLR,,0.34,WeatherDisplay:10.37,2013-02-11 03:54:00,
2013-02-10 21:59:00,48.6,42.3,28.91,SW,230,20.0,21.0,79,0.00,CLR,,0.34,WeatherDisplay:10.37,2013-02-11 03:59:00,
2013-02-10 22:04:00,48.6,42.3,28.91,SW,230,18.0,20.0,79,0.00,CLR,,0.34,WeatherDisplay:10.37,2013-02-11 04:04:00,
2013-02-10 22:09:00,48.6,42.3,28.91,SW,230,18.0,19.0,79,0.00,CLR,,0.34,WeatherDisplay:10.37,2013-02-11 04:09:00,
2013-02-10 22:14:00,48.6,42.3,28.91,WSW,238,17.0,18.0,79,0.00,CLR,,0.34,WeatherDisplay:10.37,2013-02-11 04:14:00,
2013-02-10 22:19:00,48.6,42.3,28.94,WSW,250,16.0,17.0,79,0.00,CLR,,0.34,WeatherDisplay:10.37,2013-02-11 04:19:00,
2013-02-10 22:25:00,48.6,42.3,28.94,WSW,250,15.0,16.0,79,0.00,CLR,,0.34,WeatherDisplay:10.37,2013-02-11 04:25:00,
2013-02-10 22:34:00,48.6,42.3,28.94,WSW,247,13.0,14.0,79,0.00,CLR,,0.34,WeatherDisplay:10.37,2013-02-11 04:34:00,
2013-02-10 22:39:00,48.6,42.3,28.94,WSW,248,13.0,13.0,79,0.00,CLR,,0.34,WeatherDisplay:10.37,2013-02-11 04:39:00,
2013-02-10 22:49:00,48.6,42.3,28.94,WSW,246,12.0,12.0,79,0.00,CLR,,0.34,WeatherDisplay:10.37,2013-02-11 04:49:00,
2013-02-10 22:54:00,48.6,42.3,28.94,WSW,243,10.0,12.0,79,0.00,CLR,,0.34,WeatherDisplay:10.37,2013-02-11 04:54:00,
2013-02-10 22:59:00,48.6,42.3,28.94,WSW,244,10.0,11.0,79,0.00,CLR,,0.34,WeatherDisplay:10.37,2013-02-11 04:59:00,
2013-02-10 23:04:00,48.6,42.3,28.94,WSW,250,10.0,10.0,79,0.00,CLR,,0.34,WeatherDisplay:10.37,2013-02-11 05:04:00,
2013-02-10 23:09:00,48.6,42.3,28.94,WSW,250,10.0,10.0,79,0.00,CLR,,0.34,WeatherDisplay:10.37,2013-02-11 05:09:00,
2013-02-10 23:14:00,44.6,32.8,28.94,WSW,250,10.0,10.0,63,0.00,CLR,,0.34,WeatherDisplay:10.37,2013-02-11 05:14:00,
2013-02-10 23:19:00,44.4,32.6,28.94,WSW,250,10.0,10.0,63,0.00,CLR,,0.34,WeatherDisplay:10.37,2013-02-11 05:19:00,
2013-02-10 23:24:00,44.4,32.6,28.94,WSW,254,10.0,10.0,63,0.00,CLR,,0.34,WeatherDisplay:10.37,2013-02-11 05:24:00,
2013-02-10 23:29:00,44.4,32.6,28.94,West,260,12.0,12.0,63,0.00,CLR,,0.34,WeatherDisplay:10.37,2013-02-11 05:29:00,
2013-02-10 23:34:00,44.1,32.3,28.94,West,264,12.0,12.0,63,0.00,CLR,,0.34,WeatherDisplay:10.37,2013-02-11 05:34:00,
2013-02-10 23:39:00,43.7,31.9,28.94,West,265,13.0,13.0,63,0.00,CLR,,0.34,WeatherDisplay:10.37,2013-02-11 05:39:00,
2013-02-10 23:44:00,44.4,32.6,28.97,West,265,13.0,13.0,63,0.00,CLR,,0.34,WeatherDisplay:10.37,2013-02-11 05:44:00,
2013-02-10 23:45:00,42.8,24.9,29.24,WNW,287,20.0,20.0,49,0.00,CLR,,0.00,WeatherDisplay:10.37,2013-02-11 05:45:00,
2013-02-10 23:54:00,43.9,32.1,28.97,West,265,14.0,14.0,63,0.00,SCT,,0.34,WeatherDisplay:10.37,2013-02-11 05:54:00,
2013-02-10 23:59:00,44.6,32.0,28.97,West,265,15.0,15.0,61,0.00,SCT,,0.00,WeatherDisplay:10.37,2013-02-11 05:59:00,